This demonstration page uses our WeatherBlox Daily Observations layout. Learn more.

Left ArrowRight Arrow

40.92501, -98.34201

Hourly Observations for August 26, 2022

Temp ( °F °C ) Dew Point ( °F °C ) Humidity (%) Winds ( mph kmh ) Pressure ( in mb ) Visibility ( mi km ) Precip ( " mm )
12:53 am 00:53 Clear 70 21.1 65 18.3 84 84 E 10 17 30.09 1019 10 16 0.00 0.00
1:53 am 01:53 Clear 69 20.6 64 17.8 84 84 E 10 17 30.08 1019 10 16 0.00 0.00
2:53 am 02:53 Clear 68 20 64 17.8 87 87 E 8 13 30.07 1018 10 16 0.00 0.00
3:53 am 03:53 Clear 67 19.4 63 17.2 87 87 E 6 9 30.07 1018 10 16 0.00 0.00
4:53 am 04:53 Clear 67 19.4 63 17.2 87 87 ESE 9 15 30.04 1017 10 16 0.00 0.00
5:53 am 05:53 Clear 67 19.4 62 16.7 84 84 E 7 11 30.03 1017 10 16 0.00 0.00
6:53 am 06:53 Clear 65 18.3 62 16.7 90 90 ESE 6 9 30.04 1017 10 16 0.00 0.00
7:53 am 07:53 Sunny 66 18.9 62 16.7 87 87 ESE 8 13 30.04 1017 10 16 0.00 0.00
8:53 am 08:53 Sunny 70 21.1 63 17.2 78 78 SE 12 19 30.04 1017 10 16 0.00 0.00
9:53 am 09:53 Sunny 72 22.2 63 17.2 73 73 SE 12 19 30.04 1017 10 16 0.00 0.00
10:53 am 10:53 Sunny 77 25 65 18.3 66 66 SE 12 19 30.03 1017 10 16 0.00 0.00
11:53 am 11:53 Sunny 78 25.6 66 18.9 67 67 SE 9 15 30.03 1017 10 16 0.00 0.00
12:53 pm 12:53 Sunny 82 27.8 66 18.9 58 58 SE 13 20 30.01 1016 10 16 0.00 0.00
1:53 pm 13:53 Sunny 87 30.6 66 18.9 50 50 SE 13 20 29.98 1015 10 16 0.00 0.00
2:53 pm 14:53 Sunny 90 32.2 67 19.4 47 47 SSE 12 19 29.95 1014 10 16 0.00 0.00
3:53 pm 15:53 Sunny 92 33.3 66 18.9 43 43 SSE 14 22 29.91 1013 10 16 0.00 0.00
4:53 pm 16:53 Sunny 91 32.8 67 19.4 45 45 SE 13 20 29.90 1013 10 16 0.00 0.00
5:53 pm 17:53 Sunny 88 31.1 65 18.3 47 47 SSE 15 24 29.89 1012 10 16 0.00 0.00
6:53 pm 18:53 Sunny 86 30 66 18.9 51 51 SE 10 17 29.88 1012 10 16 0.00 0.00
7:53 pm 19:53 Sunny 83 28.3 66 18.9 57 57 SSE 10 17 29.87 1012 10 16 0.00 0.00
8:53 pm 20:53 Clear 82 27.8 66 18.9 58 58 SSE 13 20 29.87 1012 10 16 0.00 0.00
9:53 pm 21:53 Clear 79 26.1 65 18.3 62 62 SSE 12 19 29.88 1012 10 16 0.00 0.00
10:53 pm 22:53 Clear 79 26.1 60 15.6 52 52 S 15 24 29.87 1012 10 16 0.00 0.00
11:53 pm 23:53 Clear 78 25.6 58 14.4 50 50 S 15 24 29.87 1012 10 16 0.00 0.00

Powered by AerisWeather